Regional Weather Roundup
Issued by NWS

Home | Current Version | Previous Version | Graphics & Text | Print | Product List | Glossary On
Versions: 1 2 3 4 5 6 7 8 9 10 11 12 13 14 15 16 17 18 19 20 21 22 23 24 25 26 27 28 29 30 31 32 33 34 35 36 37 38 39 40 41 42 43 44 45 46 47 48 49 50
000
ASUS44 KMEG 211410
RWRTN
TENNESSEE HOURLY STATE WEATHER ROUNDUP
NATIONAL WEATHER SERVICE MEMPHIS TN
900 AM CDT MON APR 21 2014

TNZ002-004-019-021-049-052-054-088>092-211500-
WEST TENNESSEE

CITY           SKY/WX    TMP DP  RH WIND       PRES   REMARKS
MEMPHIS INTL   PTSUNNY   68  53  58 S8        30.07F
NWS MEMPHIS      N/A     69 N/A N/A MISG        N/A
JACKSON        LGT RAIN  65  55  70 CALM      30.08F
DYERSBURG      CLOUDY    66  48  52 S6        30.08S
UNION CITY     SUNNY     61  54  77 S3        30.06F
PARIS          MOSUNNY   64  49  58 S6        30.09S
LEXINGTON      SUNNY     59  52  77 CALM      30.09F
SAVANNAH       CLOUDY    61  54  77 SE5       30.11F
$$

TNZ008-025-027-028-033-062-065-066-211500-
NORTH MIDDLE TENNESSEE

CITY           SKY/WX    TMP DP  RH WIND       PRES   REMARKS
NASHVILLE      CLOUDY    64  49  57 S7        30.11F
DICKSON        MOSUNNY   70  45  40 SW5       30.09F
PORTLAND         N/A     64  48  55 S7        30.09F
CLARKSVILLE    MOSUNNY   66  52  60 S5        30.08F
SMYRNA         PTSUNNY   65  52  62 CALM      30.13F
MURFREESBORO   MOSUNNY   66  48  52 SW6G17    30.12F
LIVINGSTON     MOSUNNY   64  44  48 SW7       30.14F
GALLATIN       MOSUNNY   60  52  75 SE3       30.12F
CROSSVILLE     MOSUNNY   64  39  39 SW7       30.17F
$$

TNZ061-075-076-078-094-096-097-211500-
SOUTH MIDDLE TENNESSEE

CITY           SKY/WX    TMP DP  RH WIND       PRES   REMARKS
LEWISBURG      MOSUNNY   61  52  72 CALM      30.12F
FAYETTEVILLE   PTSUNNY   63  47  55 S12       30.14F
TULLAHOMA      SUNNY     66  46  48 S7        30.15F
WINCHESTER     SUNNY     68  46  45 SE7       30.15F
MCMINNVILLE    SUNNY     64  52  63 CALM      30.15S
COLUMBIA       SUNNY     64  57  77 CALM      30.10F
SHELBYVILLE    MOSUNNY   64  52  63 S9        30.14F
$$

TNZ017-018-042-046-047-211500-
NORTHEAST TENNESSEE

CITY           SKY/WX    TMP DP  RH WIND       PRES   REMARKS
TRI CITIES     MOSUNNY   57  32  38 SE3       30.19R
$$

TNZ012-013-036-069-073-074-211500-
CENTRAL EAST TENNESSEE

CITY           SKY/WX    TMP DP  RH WIND       PRES   REMARKS
KNOXVILLE      PTSUNNY   60  45  57 SW6       30.17F
OAK RIDGE      SUNNY     64  41  42 VRB5      30.17F
$$

TNZ083-085-099-211500-
SOUTHEAST TENNESSEE

CITY           SKY/WX    TMP DP  RH WIND       PRES   REMARKS
CHATTANOOGA    PTSUNNY   64  42  44 S12       30.17F
$$

SKY/WX REPORTED AS FAIR MEANS FEW OR NO CLOUDS BELOW
12 THOUSAND FEET.




USA.gov is the U.S. government's official web portal to all federal, state and local government web resources and services.